[[{"header":{"parameterUnit":"m.s-1","parameterCategory":1,"la1":30.2991,"la2":30.254,"lo1":-89.0895,"lo2":-89.0444,"dy":0.0017,"dx":0.0017,"nx":28,"ny":28,"refTime":"2025-04-13T03:00:00:Z","depth":0,"parameterNumber":2,"parameterNumberName":"U-component_of_WINDS"},"data":[0,0,0,0,0,0,0,0,0,0,0,0,0,0,0,0,0,0,0,0,0,0,0,0,0,0,0,0,0,0,0,0,0,0,0,0,0,0,0,0,0,0,0,0,0,0,0,0,0,0,0,0,0,0,0,0,0,0,4.5283,4.5285,0,4.5475,4.5477,4.548,4.548,4.5477,4.5475,4.5472,4.5671,4.5678,4.5686,0,0,0,0,0,0,0,0,0,0,0,0,0,4.4915,4.4922,4.5282,4.5285,4.5287,4.5475,4.5477,4.548,4.548,4.5477,4.5474,4.5471,4.5668,4.5677,4.5686,0,0,0,0,0,0,0,0,0,0,0,0,0,4.5088,4.4924,4.5282,4.531,4.5314,4.5474,4.5478,4.5481,4.5481,4.5477,4.5473,4.547,4.5665,4.5676,4.5688,4.5833,0,0,4.5723,4.5727,0,0,0,0,0,0,0,0,4.5078,4.5101,4.5303,4.5308,4.5313,4.5449,4.5421,4.5599,4.5482,4.5418,4.5472,4.5468,4.56,4.5617,4.5661,4.5843,4.5851,4.5724,4.573,4.5735,4.5739,0,0,0,0,0,0,0,4.5066,4.5093,4.5359,4.5306,4.5312,4.5313,4.5333,4.5455,4.5528,4.5423,4.5423,4.5446,4.5602,4.565,4.5666,4.5854,4.5723,4.5733,4.574,4.5745,4.6164,4.6168,0,0,0,0,0,0,4.5048,4.5083,4.5353,4.5364,4.5184,4.5322,4.5345,4.541,4.5526,4.554,4.5449,4.5445,4.5633,4.5653,4.5673,4.585,4.5735,4.5746,4.5753,4.616,4.6165,4.6169,0,0,0,0,0,0,4.504,4.5072,4.5345,4.5224,4.5259,4.5333,4.5405,4.5415,4.5463,4.5546,4.5559,4.5484,4.563,4.5657,4.5793,4.5857,4.5751,4.5762,4.6155,4.6161,4.6167,4.6206,0,0,0,0,0,0,4.503,4.507,4.5125,4.5225,4.5265,4.5462,4.5409,4.5422,4.5483,4.548,4.5583,4.5596,4.5629,4.5776,4.5804,4.5871,4.577,4.6149,4.6157,4.6165,4.62,4.6213,4.6225,0,0,0,0,0,4.5017,4.5129,4.5128,4.5161,4.5337,4.5465,4.5488,4.5524,4.5488,4.5545,4.5598,4.5593,4.5846,4.579,4.5822,4.5893,4.6145,4.6155,4.6164,4.6194,4.6211,4.6225,0,0,0,0,0,0,4.5036,4.5143,4.5143,4.5291,4.5369,4.5465,4.5538,4.554,4.563,4.5624,4.5664,4.5688,4.5823,4.5872,4.5808,4.604,4.5991,4.6008,4.6003,4.6019,4.6032,4.6016,4.578,0,0,0,0,0,4.5057,4.5152,4.5241,4.5363,4.5402,4.5463,4.5521,4.5541,4.5624,4.5657,4.572,4.5801,4.5898,4.5962,4.6056,4.6207,4.6229,4.6272,4.6284,4.6294,4.6308,4.639,4.641,4.6201,4.6201,4.6201,0,0,4.5102,4.5172,4.523,4.5369,4.5431,4.5529,4.5491,4.5596,4.5669,4.5673,4.5805,4.5855,4.5947,4.6091,4.6158,4.6136,4.637,4.6306,4.6314,4.6322,4.6402,4.6422,4.6439,4.6207,4.6206,4.6205,0,0,4.5233,4.5297,4.5405,4.5468,4.5564,4.5604,4.563,4.5726,4.5759,4.5892,4.5896,4.5984,4.6151,4.6217,4.6272,4.6429,4.6427,4.6458,4.6524,4.6604,4.662,4.6635,4.669,4.6709,4.6472,4.6472,4.6472,0,4.5277,4.5425,4.546,4.5566,4.5626,4.5634,4.5744,4.5804,4.5926,4.5967,4.5941,4.615,4.6214,4.6372,4.641,4.6455,4.6486,4.6446,4.6615,4.663,4.6645,4.6697,4.6718,4.6475,4.6475,4.6474,4.6474,0,4.5473,4.5575,4.5651,4.5768,4.5837,4.5944,4.5996,4.6062,4.6077,4.612,4.6255,4.6331,4.644,4.648,4.6496,4.6641,4.6624,4.6606,4.6558,4.6667,4.6717,4.6738,4.6479,4.6478,4.6477,4.6477,0,0,4.5622,4.5756,4.5783,4.5836,4.5942,4.6021,4.6129,4.6235,4.6291,4.6375,4.6465,4.6607,4.659,4.6653,4.6676,4.6747,4.6864,4.672,4.6723,4.6743,4.7028,4.704,4.7063,4.6865,4.6869,4.6872,4.702,0,4.5763,4.5954,4.5989,4.6155,4.6249,4.6258,4.6351,4.6427,4.647,4.6556,4.6604,4.6703,4.6674,4.6712,4.6782,4.6835,4.6922,4.6825,4.6949,4.6953,4.6924,4.7089,4.7102,4.7238,4.704,4.7043,4.7046,0,4.5954,4.6042,4.6217,4.6309,4.635,4.6434,4.6534,4.6617,4.6702,4.6728,4.6798,4.6813,4.6925,4.6873,4.7027,4.6961,4.7013,4.7047,4.7053,4.7065,4.7005,4.7104,4.7283,4.7303,4.7077,4.7075,4.7072,0,4.6043,4.6205,4.6331,4.6376,4.6487,4.6545,4.6595,4.6676,4.6738,4.6826,4.6866,4.6966,4.702,4.7098,4.7139,4.7097,4.729,4.7242,4.7315,4.7314,4.7354,4.735,4.7542,4.739,4.739,4.739,4.7389,0,4.6197,4.6304,4.6372,4.6449,4.6568,4.6608,4.6725,4.6774,4.6846,4.6933,4.6947,4.7028,4.7079,4.7167,4.7201,4.7323,4.7348,4.7372,4.7379,4.737,4.7367,4.7404,4.7395,4.7395,4.7394,4.7393,4.7392,0,4.6316,4.6366,4.6503,4.6597,4.6624,4.6707,4.6788,4.6863,4.6906,4.7015,4.7043,4.7111,4.7215,4.7265,4.7395,4.7418,4.7556,4.7558,4.7526,4.7529,4.7598,4.7591,4.782,4.7851,4.768,4.7681,4.7683,0,4.641,4.6492,4.6595,4.6654,4.6704,4.6799,4.6862,4.6904,4.6969,4.7072,4.7135,4.724,4.7326,4.7493,4.7553,4.7653,4.7656,4.773,4.7671,4.7659,4.7656,4.765,4.7657,4.774,4.7741,4.7743,4.7744,0,4.6572,4.6593,4.6682,4.6781,4.6855,4.6935,4.7013,4.706,4.7115,4.7187,4.7294,4.7361,4.7493,4.7597,4.7701,4.7751,4.7757,4.7762,4.7784,4.7774,4.7752,4.7764,4.7554,4.7756,4.7755,4.7754,4.7753,4.7753,4.6681,4.6754,4.6837,4.6936,4.6999,4.7072,4.7147,4.7199,4.7289,4.7399,4.7419,4.7532,4.7615,4.7755,4.7809,4.7898,4.7881,4.7913,4.7921,4.7928,4.7931,4.7739,4.7918,4.7917,4.7917,4.7917,4.7917,0,4.6842,4.6896,4.6987,4.7095,4.7173,4.7172,4.7258,4.7323,4.7423,4.75,4.7584,4.7706,4.7807,4.7876,4.7978,4.8036,4.8041,4.8061,4.8057,4.8068,4.7941,4.7911,4.8055,4.8055,4.8055,4.8055,4.8055,4.8055,4.6935,4.7058,4.7088,4.7242,4.7296,4.7406,4.7455,4.7522,4.7584,4.772,4.7803,4.7847,4.7921,4.8028,4.812,4.8138,4.8174,4.8195,4.8212,4.8092,4.8077,4.8063,4.8035,4.8203,4.8203,4.8331,4.8332,4.8333]},{"header":{"parameterUnit":"m.s-1","parameterCategory":1,"la1":30.2991,"la2":30.254,"lo1":-89.0895,"lo2":-89.0444,"dy":0.0017,"dx":0.0017,"nx":28,"ny":28,"refTime":"2025-04-13T03:00:00:Z","depth":0,"parameterNumber":3,"parameterNumberName":"V-component_of_WINDS"},"data":[0,0,0,0,0,0,0,0,0,0,0,0,0,0,0,0,0,0,0,0,0,0,0,0,0,0,0,0,0,0,0,0,0,0,0,0,0,0,0,0,0,0,0,0,0,0,0,0,0,0,0,0,0,0,0,0,0,0,3.5486,3.5487,0,3.5543,3.5543,3.5544,3.5508,3.5506,3.5505,3.5503,3.5559,3.5561,3.5564,0,0,0,0,0,0,0,0,0,0,0,0,0,3.5345,3.5348,3.5486,3.5487,3.5488,3.5542,3.5543,3.5544,3.5508,3.5506,3.5504,3.5502,3.5558,3.5561,3.5565,0,0,0,0,0,0,0,0,0,0,0,0,0,3.5404,3.5349,3.5486,3.5477,3.5476,3.5542,3.5543,3.5544,3.5509,3.5506,3.5504,3.5501,3.5556,3.5561,3.5565,3.5643,0,0,3.5579,3.5581,0,0,0,0,0,0,0,0,3.5401,3.5409,3.5477,3.5477,3.5477,3.5516,3.5514,3.5577,3.5509,3.5496,3.5503,3.55,3.5546,3.5551,3.5567,3.5646,3.5648,3.5579,3.5582,3.5584,3.5585,0,0,0,0,0,0,0,3.5397,3.5407,3.5508,3.5478,3.5478,3.5468,3.5474,3.5525,3.5534,3.5497,3.5495,3.5502,3.5546,3.5563,3.5568,3.5649,3.5579,3.5583,3.5586,3.5588,3.5792,3.5794,0,0,0,0,0,0,3.5394,3.5404,3.5507,3.551,3.5432,3.5473,3.5479,3.5506,3.5534,3.5536,3.5504,3.55,3.5557,3.5563,3.557,3.5662,3.5584,3.5588,3.5591,3.5789,3.5792,3.5795,0,0,0,0,0,0,3.5391,3.5403,3.5504,3.5456,3.5468,3.5478,3.5508,3.5508,3.5526,3.5539,3.554,3.5521,3.5555,3.5564,3.5625,3.5663,3.559,3.5595,3.5786,3.579,3.5794,3.5847,0,0,0,0,0,0,3.5387,3.5403,3.5433,3.5457,3.5471,3.5559,3.5511,3.5511,3.5534,3.5529,3.5555,3.5557,3.5554,3.5618,3.5629,3.5668,3.5598,3.5783,3.5788,3.5793,3.5842,3.5852,3.5861,0,0,0,0,0,3.5382,3.5446,3.5435,3.5448,3.551,3.5562,3.557,3.5566,3.5537,3.5567,3.5576,3.5556,3.5658,3.5625,3.5637,3.5678,3.578,3.5786,3.5792,3.5837,3.585,3.5861,0,0,0,0,0,0,3.5426,3.5449,3.5437,3.5511,3.5535,3.5556,3.5594,3.5579,3.5611,3.5606,3.5598,3.5604,3.5668,3.5679,3.5642,3.5754,3.5714,3.5723,3.5744,3.5757,3.5766,3.5762,3.5602,0,0,0,0,0,3.5444,3.5485,3.5503,3.5566,3.5579,3.5584,3.5607,3.5601,3.5626,3.5635,3.5648,3.5672,3.5709,3.5733,3.5768,3.5843,3.5847,3.5877,3.5887,3.5895,3.5902,3.5941,3.5954,3.5815,3.5815,3.5815,0,0,3.5482,3.55,3.5526,3.5575,3.5593,3.5635,3.5593,3.5639,3.567,3.5642,3.5701,3.5711,3.5736,3.5804,3.5835,3.5815,3.5942,3.5903,3.5909,3.5912,3.5949,3.5962,3.5974,3.5819,3.5819,3.5818,0,0,3.5572,3.559,3.5644,3.5663,3.5691,3.5694,3.5707,3.573,3.5736,3.5794,3.5774,3.581,3.5874,3.5893,3.5911,3.6007,3.5989,3.6018,3.6069,3.6107,3.6118,3.6127,3.616,3.6172,3.6026,3.6026,3.6026,0,3.5616,3.5679,3.5674,3.5721,3.5743,3.572,3.5774,3.5792,3.5829,3.5844,3.5822,3.5901,3.5917,3.5988,3.6011,3.6027,3.6041,3.6015,3.6117,3.6126,3.6135,3.6167,3.6179,3.6029,3.6029,3.6028,3.6028,0,3.573,3.5774,3.5814,3.5851,3.5877,3.5928,3.5929,3.5955,3.5948,3.5953,3.6011,3.6029,3.6067,3.6083,3.6076,3.6153,3.614,3.6118,3.6078,3.6152,3.6181,3.6193,3.6034,3.6033,3.6032,3.6031,0,0,3.585,3.5883,3.5898,3.5914,3.5942,3.5975,3.6024,3.6061,3.6083,3.6109,3.6149,3.6203,3.6182,3.6203,3.6197,3.623,3.6303,3.6203,3.6204,3.622,3.6388,3.6404,3.6418,3.6292,3.6294,3.6296,3.6385,0,3.5941,3.6027,3.6023,3.6103,3.6142,3.6121,3.6163,3.6184,3.619,3.6223,3.6229,3.6267,3.6237,3.6249,3.6281,3.6288,3.6337,3.6281,3.6328,3.6329,3.6321,3.6434,3.6452,3.6535,3.6397,3.6399,3.64,0,3.6059,3.609,3.6174,3.6195,3.6211,3.6249,3.6282,3.6315,3.6338,3.6339,3.6361,3.635,3.6398,3.6357,3.6421,3.6384,3.6402,3.6408,3.6411,3.6415,3.6369,3.644,3.6562,3.6574,3.6419,3.6417,3.6416,0,3.6137,3.6199,3.6257,3.6271,3.6297,3.6324,3.6336,3.6357,3.6379,3.6407,3.6421,3.6455,3.6473,3.6498,3.6496,3.6466,3.6561,3.652,3.6562,3.6563,3.6583,3.6582,3.6709,3.6597,3.6596,3.6596,3.6596,0,3.6239,3.6291,3.6292,3.6327,3.6384,3.6378,3.6434,3.6443,3.6462,3.6497,3.648,3.6514,3.6509,3.6542,3.654,3.6593,3.6602,3.6604,3.6602,3.6605,3.6604,3.6616,3.661,3.6599,3.6599,3.6598,3.6597,0,3.6335,3.6338,3.64,3.6419,3.6425,3.6466,3.6482,3.6515,3.6519,3.6564,3.6575,3.658,3.6619,3.6619,3.6662,3.6661,3.6725,3.6718,3.6718,3.6716,3.6758,3.6754,3.6897,3.6915,3.6792,3.6793,3.6794,0,3.64,3.6439,3.6463,3.6486,3.65,3.6537,3.6559,3.6555,3.6579,3.6607,3.6636,3.6673,3.6702,3.6764,3.6771,3.6804,3.6797,3.6844,3.6801,3.6802,3.6796,3.6793,3.6796,3.6853,3.6854,3.6855,3.6856,0,3.6514,3.6513,3.6546,3.658,3.6607,3.6633,3.6657,3.6677,3.6674,3.6702,3.6741,3.6763,3.6808,3.6844,3.6875,3.6886,3.6871,3.687,3.6881,3.6883,3.6881,3.6882,3.674,3.6866,3.6865,3.6864,3.6864,3.6864,3.6595,3.6628,3.665,3.6687,3.6705,3.6728,3.6759,3.6767,3.6799,3.6836,3.6831,3.6874,3.6894,3.6935,3.6948,3.6981,3.6964,3.6981,3.6985,3.6989,3.6993,3.6877,3.6987,3.6987,3.6986,3.6986,3.6986,0,3.6707,3.672,3.6754,3.6788,3.6817,3.68,3.6826,3.685,3.6889,3.691,3.6938,3.6982,3.7017,3.7027,3.706,3.7084,3.7078,3.7093,3.7091,3.7093,3.7007,3.6993,3.7098,3.7098,3.7098,3.7098,3.7098,3.7098,3.6768,3.6824,3.6825,3.6888,3.69,3.6943,3.6959,3.6979,3.6995,3.7045,3.7074,3.708,3.7096,3.713,3.716,3.7162,3.7175,3.7193,3.7192,3.7111,3.71,3.7089,3.7076,3.7196,3.7196,3.7275,3.7276,3.7276]}]]